Columbus, OH

7:21 PM EST on February 06, 2016 (GMT -0500)
Rickenbacker International

Weather History for KLCK - April, 2014

Change the Weather History Date:

Wednesday, April 9, 2014

  Actual Average Record
Temperature  
Mean Temperature 52 °F -  
Max Temperature 61 °F 63 °F 84 °F (2001)
Min Temperature 44 °F 42 °F 21 °F (1997)
Degree Days  
Heating Degree Days 12    
Growing Degree Days 2 (Base 50)    
Moisture  
Dew Point 31 °F    
Average Humidity 48    
Maximum Humidity 70    
Minimum Humidity 22    
Precipitation  
Precipitation 0.00 in - - ()
Sea Level Pressure  
Sea Level Pressure 29.95 in    
Wind  
Wind Speed 8 mph (NW)    
Max Wind Speed 16 mph    
Max Gust Speed 22 mph    
Visibility 10 miles    
Events      
Averages and records for this station are not official NWS values.
T = Trace of Precipitation, MM = Missing Value Source: NWS Daily Summary

Daily Weather History Graph

Daily Weather History Graph

Search for Another Location

Airport or City:

Trip Planner

Search our weather history database for the weather conditions in past years. The results will help you decide how hot, cold, wet, or windy it might be!

Date:

Astronomy

Apr. 09, 2014 Rise Set
Actual Time 7:03 AM EDT 8:03 PM EDT
Civil Twilight 6:35 AM EDT 8:31 PM EDT
Nautical Twilight 6:02 AM EDT 9:04 PM EDT
Astronomical Twilight 5:28 AM EDT 9:38 PM EDT
Moon 2:51 PM EDT (4/9) 3:51 AM EDT (4/9)
Length of Visible Light 13h 55m
Length of Day
13h 00m
Waxing Gibbous, 71% of the Moon is Illuminated
Apr 9
Waxing Gibbous
Apr 15
Full
Apr 22
Last Quarter
Apr 29
New
May 6
First Quarter

Hourly Weather History & Observations

Time (EDT) Temp. Windchill Dew Point Humidity Pressure Visibility Wind Dir Wind Speed Gust Speed Precip Events Conditions
12:15 AM 52.5 °F - 39.7 °F 62% 29.79 in 10.0 mi NW 5.8 mph - N/A   Overcast
12:35 AM 51.8 °F - 40.3 °F 65% 29.79 in 10.0 mi NW 6.9 mph - N/A   Overcast
12:55 AM 51.1 °F - 39.4 °F 64% 29.79 in 10.0 mi NW 6.9 mph - N/A   Mostly Cloudy
1:15 AM 50.4 °F - 38.7 °F 64% 29.80 in 10.0 mi NW 8.1 mph - N/A   Scattered Clouds
1:35 AM 50.0 °F - 38.7 °F 65% 29.80 in 10.0 mi NW 6.9 mph - N/A   Mostly Cloudy
1:55 AM 49.3 °F - 38.5 °F 66% 29.80 in 10.0 mi NW 6.9 mph - N/A   Mostly Cloudy
2:15 AM 48.6 °F - 38.1 °F 67% 29.80 in 10.0 mi NW 6.9 mph - N/A   Scattered Clouds
2:35 AM 48.2 °F - 37.6 °F 67% 29.80 in 10.0 mi NW 5.8 mph - N/A   Scattered Clouds
2:55 AM 47.3 °F - 37.4 °F 68% 29.80 in 10.0 mi WNW 5.8 mph - N/A   Scattered Clouds
3:15 AM 47.3 °F - 37.8 °F 69% 29.80 in 10.0 mi WNW 5.8 mph - N/A   Mostly Cloudy
3:35 AM 47.8 °F - 38.3 °F 70% 29.80 in 10.0 mi WNW 5.8 mph - N/A   Overcast
3:55 AM 47.7 °F - 37.9 °F 69% 29.81 in 10.0 mi NW 5.8 mph - N/A   Overcast
4:15 AM 48.0 °F - 37.6 °F 67% 29.81 in 10.0 mi NW 6.9 mph - N/A   Overcast
4:35 AM 48.0 °F - 36.5 °F 64% 29.81 in 10.0 mi NW 8.1 mph - N/A   Overcast
4:55 AM 47.5 °F - 36.0 °F 64% 29.82 in 10.0 mi NW 8.1 mph - N/A   Overcast
5:15 AM 47.3 °F - 35.8 °F 64% 29.83 in 10.0 mi NNW 6.9 mph - N/A   Overcast
5:35 AM 47.1 °F - 35.8 °F 65% 29.83 in 10.0 mi NW 8.1 mph - N/A   Overcast
5:50 AM 46.6 °F - 35.8 °F 66% 29.84 in 10.0 mi NNW 5.8 mph - N/A   Mostly Cloudy
6:15 AM 45.9 °F 42.3 °F 35.6 °F 67% 29.86 in 10.0 mi NW 6.9 mph - N/A   Mostly Cloudy
6:35 AM 45.7 °F 42.0 °F 35.6 °F 68% 29.87 in 10.0 mi NNW 6.9 mph - N/A   Mostly Cloudy
6:55 AM 45.1 °F 40.3 °F 35.6 °F 69% 29.88 in 10.0 mi NNW 9.2 mph - N/A   Mostly Cloudy
7:15 AM 45.1 °F 41.4 °F 35.4 °F 69% 29.89 in 10.0 mi NNW 6.9 mph - N/A   Scattered Clouds
7:35 AM 44.8 °F 41.6 °F 35.2 °F 69% 29.91 in 10.0 mi NNW 5.8 mph - N/A   Mostly Cloudy
7:55 AM 45.1 °F 41.4 °F 35.2 °F 68% 29.92 in 10.0 mi NNW 6.9 mph - N/A   Overcast
8:15 AM 46.0 °F 42.5 °F 34.3 °F 64% 29.93 in 10.0 mi North 6.9 mph - N/A   Scattered Clouds
8:35 AM 47.1 °F - 33.8 °F 60% 29.94 in 10.0 mi NNW 9.2 mph - N/A   Clear
8:55 AM 48.0 °F - 32.7 °F 55% 29.95 in 10.0 mi NNW 10.4 mph - N/A   Clear
9:15 AM 48.9 °F - 32.0 °F 52% 29.96 in 10.0 mi North 9.2 mph - N/A   Clear
9:35 AM 49.8 °F - 30.7 °F 48% 29.97 in 10.0 mi North 11.5 mph - N/A   Clear
9:55 AM 50.7 °F - 30.2 °F 45% 29.98 in 10.0 mi North 9.2 mph - N/A   Clear
10:15 AM 51.8 °F - 29.1 °F 42% 29.99 in 10.0 mi North 9.2 mph - N/A   Clear
10:35 AM 52.7 °F - 28.8 °F 40% 30.00 in 10.0 mi North 8.1 mph - N/A   Clear
10:55 AM 53.6 °F - 28.9 °F 39% 30.01 in 10.0 mi North 11.5 mph - N/A   Clear
11:15 AM 54.1 °F - 30.2 °F 40% 30.01 in 10.0 mi North 9.2 mph - N/A   Clear
11:35 AM 54.7 °F - 31.3 °F 41% 30.01 in 10.0 mi NNW 9.2 mph - N/A   Clear
11:55 AM 55.4 °F - 30.6 °F 39% 30.01 in 10.0 mi NW 10.4 mph - N/A   Clear
12:15 PM 56.1 °F - 30.4 °F 38% 30.01 in 10.0 mi NW 11.5 mph 16.1 mph N/A   Clear
12:35 PM 57.2 °F - 28.8 °F 34% 30.01 in 10.0 mi NW 11.5 mph - N/A   Clear
12:55 PM 57.4 °F - 27.7 °F 32% 30.01 in 10.0 mi North 6.9 mph - N/A   Clear
1:15 PM 57.9 °F - 27.3 °F 31% 30.00 in 10.0 mi West 9.2 mph - N/A   Clear
1:35 PM 59.0 °F - 24.8 °F 27% 30.00 in 10.0 mi WNW 10.4 mph 21.9 mph N/A   Scattered Clouds
1:55 PM 60.1 °F - 24.3 °F 25% 30.00 in 10.0 mi NW 8.1 mph 19.6 mph N/A   Scattered Clouds
2:15 PM 59.2 °F - 25.2 °F 27% 30.00 in 10.0 mi NW 11.5 mph 16.1 mph N/A   Scattered Clouds
2:35 PM 58.8 °F - 25.2 °F 28% 30.01 in 10.0 mi NW 11.5 mph 16.1 mph N/A   Scattered Clouds
2:55 PM 59.7 °F - 25.2 °F 27% 30.00 in 10.0 mi NW 16.1 mph 20.7 mph N/A   Mostly Cloudy
3:15 PM 60.8 °F - 26.2 °F 27% 30.00 in 10.0 mi West 9.2 mph 20.7 mph N/A   Mostly Cloudy
3:35 PM 61.7 °F - 24.8 °F 24% 30.00 in 10.0 mi West 16.1 mph 21.9 mph N/A   Overcast
3:55 PM 61.3 °F - 22.5 °F 23% 30.00 in 10.0 mi West 15.0 mph 20.7 mph N/A   Overcast
4:15 PM 60.8 °F - 21.7 °F 22% 30.00 in 10.0 mi WNW 13.8 mph 20.7 mph N/A   Mostly Cloudy
4:35 PM 60.1 °F - 21.9 °F 23% 30.00 in 10.0 mi WNW 12.7 mph 19.6 mph N/A   Scattered Clouds
4:55 PM 59.5 °F - 22.6 °F 24% 30.01 in 10.0 mi WNW 11.5 mph 18.4 mph N/A   Mostly Cloudy
5:15 PM 59.7 °F - 23.5 °F 25% 30.01 in 10.0 mi WNW 9.2 mph 17.3 mph N/A   Overcast
5:35 PM 59.0 °F - 22.5 °F 24% 30.01 in 10.0 mi NW 12.7 mph - N/A   Mostly Cloudy
5:55 PM 59.4 °F - 22.6 °F 24% 30.01 in 10.0 mi NW 9.2 mph 18.4 mph N/A   Mostly Cloudy
6:15 PM 59.4 °F - 22.5 °F 24% 30.01 in 10.0 mi West 12.7 mph 16.1 mph N/A   Scattered Clouds
6:35 PM 59.5 °F - 23.2 °F 25% 30.00 in 10.0 mi WNW 8.1 mph - N/A   Scattered Clouds
6:55 PM 59.2 °F - 22.5 °F 24% 30.01 in 10.0 mi NW 11.5 mph - N/A   Scattered Clouds
7:15 PM 57.9 °F - 23.0 °F 26% 30.01 in 10.0 mi NW 4.6 mph - N/A   Clear
7:35 PM 57.2 °F - 23.9 °F 28% 30.02 in 10.0 mi WNW 5.8 mph - N/A   Clear
7:55 PM 56.1 °F - 24.1 °F 29% 30.02 in 10.0 mi WNW 4.6 mph - N/A   Clear
8:15 PM 55.4 °F - 24.6 °F 30% 30.03 in 10.0 mi WSW 3.5 mph - N/A   Clear
8:35 PM 54.3 °F - 26.6 °F 34% 30.03 in 10.0 mi Calm Calm - N/A   Clear
8:55 PM 53.1 °F - 30.0 °F 41% 30.03 in 10.0 mi Calm Calm - N/A   Clear
9:15 PM 51.3 °F - 31.5 °F 47% 30.03 in 10.0 mi South 3.5 mph - N/A   Clear
9:35 PM 49.1 °F - 32.4 °F 53% 30.04 in 10.0 mi SSE 4.6 mph - N/A   Clear
9:55 PM 48.4 °F - 33.3 °F 56% 30.05 in 10.0 mi SSE 4.6 mph - N/A   Clear
10:15 PM 46.9 °F - 34.5 °F 62% 30.04 in 10.0 mi SSE 5.8 mph - N/A   Clear
10:35 PM 46.0 °F 42.5 °F 34.5 °F 64% 30.04 in 10.0 mi SSE 6.9 mph - N/A   Clear
10:55 PM 46.4 °F 43.5 °F 33.1 °F 60% 30.04 in 10.0 mi SSE 5.8 mph - N/A   Clear
11:15 PM 45.7 °F 42.0 °F 33.8 °F 63% 30.04 in 10.0 mi SSE 6.9 mph - N/A   Clear
11:35 PM 45.1 °F 42.0 °F 33.4 °F 64% 30.03 in 10.0 mi SSE 5.8 mph - N/A   Clear
11:55 PM 44.6 °F 40.7 °F 33.1 °F 64% 30.03 in 10.0 mi South 6.9 mph - N/A   Clear